User: anonymous   Login
Location: Banios
(43.0451°N, 0.2335°E)
Time: 20:36:12
(UTC+00:00)
Language:

Atlas Centaur 2 - Orbit

View from above orbital plane
View from above orbital plane
View from above satellite
View from above satellite

Ground track
Ground track

The orbit data is extracted from the following two-line orbital elements,

1   694U 63047A   21103.17120253  .00000234  00000-0  14409-4 0  9998
2   694  30.3612  40.3458 0585253 269.4217  83.9328 14.02777644878838
Epoch (UTC): 13 April 2021 04:06:31
Eccentricity: 0.0585253
inclination: 30.3612°
perigee height: 459 km
apogee height: 1309 km
right ascension of ascending node: 40.3458°
argument of perigee: 269.4217°
revolutions per day: 14.02777644
mean anomaly at epoch: 83.9328°
orbit number at epoch: 87883

The dashed part of the orbit path shows where the satellite is in the earth's shadow,  

DLR